Weather History for KMHT - January, 2012

Change the Weather History Date:

Tuesday, January 3, 2012

  Actual Average Record
Temperature  
Mean Temperature 20 °F -  
Max Temperature 30 °F 33 °F 61 °F (2000)
Min Temperature 9 °F 11 °F -12 °F (1968)
Degree Days  
Heating Degree Days 45    
Moisture  
Dew Point 2 °F    
Average Humidity 45    
Maximum Humidity 55    
Minimum Humidity 34    
Precipitation  
Precipitation 0.00 in - - ()
Sea Level Pressure  
Sea Level Pressure 29.90 in    
Wind  
Wind Speed 9 mph (NW)    
Max Wind Speed 20 mph    
Max Gust Speed 28 mph    
Visibility 10 miles    
Events      
Averages and records for this station are not official NWS values.
T = Trace of Precipitation, MM = Missing Value Source: NWS Daily Summary

Daily Weather History Graph

Daily Weather History Graph

Search for Another Location

Airport or City:

Trip Planner

Search our weather history database for the weather conditions in past years. The results will help you decide how hot, cold, wet, or windy it might be!

Date:

Astronomy

Jan. 03, 2012 Rise Set
Actual Time 7:16 AM EST 4:23 PM EST
Civil Twilight 6:44 AM EST 4:55 PM EST
Nautical Twilight 6:09 AM EST 5:31 PM EST
Astronomical Twilight 5:34 AM EST 6:05 PM EST
Moon 12:11 PM EST (1/3) 2:02 AM EST (1/3)
Length of Visible Light 10h 10m
Length of Day
9h 06m
Waxing Gibbous, 72% of the Moon is Illuminated
Jan 3
Waxing Gibbous
Jan 9
Full
Jan 16
Last Quarter
Jan 23
New
Jan 30
First Quarter

Hourly Weather History & Observations

Time (EST) Temp. Windchill Dew Point Humidity Pressure Visibility Wind Dir Wind Speed Gust Speed Precip Events Conditions
12:53 AM 30.0 °F 26.5 °F 12.0 °F 47% 29.73 in 10.0 mi WSW 3.5 mph - N/A   Clear
1:53 AM 30.0 °F - 12.0 °F 47% 29.75 in 10.0 mi Calm Calm - N/A   Overcast
2:53 AM 28.0 °F 22.8 °F 12.9 °F 53% 29.75 in 10.0 mi West 4.6 mph - N/A   Partly Cloudy
3:53 AM 28.0 °F 19.3 °F 10.9 °F 49% 29.75 in 10.0 mi NW 9.2 mph - N/A   Clear
4:53 AM 27.0 °F 18.7 °F 10.0 °F 49% 29.77 in 10.0 mi WNW 8.1 mph - N/A   Clear
5:53 AM 26.1 °F 16.8 °F 6.1 °F 43% 29.79 in 10.0 mi WNW 9.2 mph - N/A   Clear
6:53 AM 24.1 °F 13.7 °F 7.0 °F 48% 29.83 in 10.0 mi NW 10.4 mph - N/A   Partly Cloudy
7:53 AM 24.1 °F 14.4 °F 6.1 °F 46% 29.85 in 10.0 mi WNW 9.2 mph - N/A   Partly Cloudy
8:53 AM 24.8 °F 14.6 °F 5.0 °F 43% 29.82 in 10.0 mi NW 10.4 mph - N/A   Partly Cloudy
9:53 AM 23.0 °F 10.1 °F 9.0 °F 55% 29.88 in 10.0 mi NNW 15.0 mph - N/A   Mostly Cloudy
10:53 AM 23.0 °F 10.6 °F 6.1 °F 48% 29.87 in 10.0 mi NW 13.8 mph 21.9 mph N/A   Mostly Cloudy
11:53 AM 21.0 °F 9.3 °F 3.9 °F 48% 29.88 in 10.0 mi NW 11.5 mph 23.0 mph N/A   Scattered Clouds
12:53 PM 23.0 °F 12.4 °F 1.9 °F 40% 29.86 in 10.0 mi NW 10.4 mph 23.0 mph N/A   Partly Cloudy
1:53 PM 23.0 °F 10.6 °F -0.9 °F 35% 29.89 in 10.0 mi NW 13.8 mph - N/A   Partly Cloudy
2:53 PM 21.9 °F 8.2 °F -0.9 °F 37% 29.91 in 10.0 mi NNW 16.1 mph 24.2 mph N/A   Partly Cloudy
3:53 PM 19.9 °F 10.1 °F -0.9 °F 40% 29.96 in 10.0 mi NW 8.1 mph - N/A   Clear
4:53 PM 18.0 °F 2.6 °F -2.9 °F 40% 29.97 in 10.0 mi NNW 17.3 mph 21.9 mph N/A   Clear
5:53 PM 17.1 °F 2.0 °F -7.1 °F 34% 30.01 in 10.0 mi NNW 16.1 mph 21.9 mph N/A   Clear
6:53 PM 14.0 °F -3.4 °F -8.0 °F 37% 30.06 in 10.0 mi NW 19.6 mph 25.3 mph N/A   Clear
7:53 PM 12.9 °F -0.2 °F -6.0 °F 43% 30.08 in 10.0 mi NNW 10.4 mph 25.3 mph N/A   Clear
8:53 PM 12.2 °F -2.5 °F -5.8 °F 45% 30.01 in 10.0 mi NNW 12.7 mph 26.5 mph N/A   Clear
9:53 PM 10.9 °F -6.5 °F -4.0 °F 51% 30.07 in 10.0 mi NW 17.3 mph 25.3 mph N/A   Clear
10:53 PM 10.0 °F -7.6 °F -5.1 °F 51% 30.06 in 10.0 mi NW 17.3 mph 27.6 mph N/A   Clear
11:53 PM 9.0 °F -10.0 °F -5.1 °F 53% 30.05 in 10.0 mi NW 19.6 mph 27.6 mph N/A   Clear